• In Romania
  • List of Countries
  • For 7 days
  • Water Temperature
  • Satellite Maps
  • Weather Map
  • Weather Widgets
  • user-avatar
    Login

    Hourly Weather Shaki

    Today, 20 November, Monday

    Time Temperature Precipitation Wind Pressure Humidity
    00:00 +13°C° 0 mm 1 mps 733 mmHg 42%
    01:00 +13°C° 0 mm 2 mps 733 mmHg 41%
    02:00 +13°C° 0 mm 2 mps 733 mmHg 40%
    03:00 +13°C° 0 mm 2 mps 733 mmHg 37%
    04:00 +13°C° 0 mm 2 mps 733 mmHg 37%
    05:00 +14°C° 0 mm 2 mps 733 mmHg 37%
    06:00 +13°C° 0 mm 3 mps 733 mmHg 37%
    07:00 +14°C° 0 mm 3 mps 733 mmHg 38%
    08:00 +16°C° 0 mm 3 mps 733 mmHg 38%
    09:00 +17°C° 0 mm 3 mps 733 mmHg 39%
    10:00 +18°C° 0 mm 4 mps 732 mmHg 37%
    11:00 +19°C° 0 mm 4 mps 732 mmHg 35%
    12:00 +20°C° 0 mm 4 mps 732 mmHg 33%
    13:00 +20°C° 0 mm 4 mps 732 mmHg 32%
    14:00 +20°C° 0 mm 4 mps 732 mmHg 31%
    15:00 +19°C° 0 mm 4 mps 732 mmHg 31%
    16:00 +18°C° 0 mm 3 mps 732 mmHg 33%
    17:00 +17°C° 0 mm 3 mps 732 mmHg 36%
    18:00 +14°C° 0 mm 3 mps 732 mmHg 39%
    19:00 +14°C° 0 mm 3 mps 732 mmHg 40%
    20:00 +14°C° 0 mm 3 mps 732 mmHg 41%
    21:00 +14°C° 0 mm 2 mps 732 mmHg 43%
    22:00 +14°C° 0 mm 2 mps 731 mmHg 43%
    23:00 +14°C° 0 mm 2 mps 731 mmHg 43%

    Tomorrow, 21 November, Tuesday

    Time Temperature Precipitation Wind Pressure Humidity
    00:00 +14°C° 0 mm 2 mps 731 mmHg 43%
    01:00 +13°C° 0 mm 2 mps 731 mmHg 43%
    02:00 +13°C° 0 mm 2 mps 731 mmHg 43%
    03:00 +13°C° 0 mm 2 mps 730 mmHg 43%
    04:00 +13°C° 0 mm 2 mps 730 mmHg 42%
    05:00 +12°C° 0 mm 3 mps 730 mmHg 42%
    06:00 +12°C° 0 mm 3 mps 730 mmHg 41%
    07:00 +14°C° 0 mm 2 mps 730 mmHg 39%
    08:00 +15°C° 0 mm 2 mps 729 mmHg 37%
    09:00 +16°C° 0 mm 2 mps 729 mmHg 35%
    10:00 +17°C° 0 mm 2 mps 729 mmHg 33%
    11:00 +18°C° 0 mm 3 mps 728 mmHg 30%
    12:00 +20°C° 0 mm 3 mps 728 mmHg 28%
    13:00 +19°C° 0 mm 3 mps 727 mmHg 28%
    14:00 +19°C° 0 mm 3 mps 727 mmHg 29%
    15:00 +19°C° 0 mm 3 mps 726 mmHg 30%
    16:00 +18°C° 0 mm 3 mps 726 mmHg 33%
    17:00 +16°C° 0 mm 2 mps 726 mmHg 36%
    18:00 +15°C° 0 mm 2 mps 726 mmHg 38%
    19:00 +15°C° 0 mm 2 mps 725 mmHg 40%
    20:00 +14°C° 0 mm 2 mps 725 mmHg 41%
    21:00 +14°C° 0 mm 2 mps 725 mmHg 42%
    22:00 +14°C° 0 mm 2 mps 725 mmHg 42%
    23:00 +14°C° 0 mm 2 mps 724 mmHg 43%

    Day after tomorrow, 22 November, Wednesday

    Time Temperature Precipitation Wind Pressure Humidity
    00:00 +13°C° 0 mm 2 mps 724 mmHg 43%
    01:00 +12°C° 0 mm 3 mps 724 mmHg 43%
    02:00 +12°C° 0 mm 3 mps 724 mmHg 44%
    03:00 +12°C° 0 mm 4 mps 725 mmHg 44%
    04:00 +12°C° 0 mm 4 mps 725 mmHg 46%
    05:00 +11°C° 0 mm 4 mps 725 mmHg 48%
    06:00 +11°C° 0 mm 4 mps 725 mmHg 50%
    07:00 +12°C° 0 mm 5 mps 726 mmHg 49%
    08:00 +13°C° 0 mm 5 mps 726 mmHg 47%
    09:00 +13°C° 0 mm 5 mps 727 mmHg 46%
    10:00 +13°C° 0.1 mm 5 mps 727 mmHg 46%
    11:00 +13°C° 0.1 mm 5 mps 728 mmHg 47%
    12:00 +13°C° 0.1 mm 5 mps 728 mmHg 48%
    13:00 +13°C° 0.1 mm 5 mps 728 mmHg 49%
    14:00 +13°C° 0.1 mm 5 mps 728 mmHg 51%
    15:00 +12°C° 0.1 mm 4 mps 729 mmHg 53%
    16:00 +11°C° 0.4 mm 4 mps 729 mmHg 58%
    17:00 +10°C° 0.4 mm 4 mps 730 mmHg 63%
    18:00 +8°C° 0.4 mm 4 mps 730 mmHg 69%
    19:00 +8°C° 0.7 mm 3 mps 731 mmHg 70%
    20:00 +8°C° 0.7 mm 3 mps 731 mmHg 72%
    21:00 +8°C° 0.7 mm 2 mps 732 mmHg 73%
    22:00 +7°C° 0.4 mm 2 mps 732 mmHg 73%
    23:00 +7°C° 0.4 mm 2 mps 732 mmHg 73%

    23 November, Thursday

    Time Temperature Precipitation Wind Pressure Humidity
    00:00 +8°C° 0.4 mm 1 mps 732 mmHg 74%
    01:00 +8°C° 0.2 mm 1 mps 732 mmHg 73%
    02:00 +7°C° 0.2 mm 1 mps 732 mmHg 73%
    03:00 +7°C° 0.2 mm 1 mps 732 mmHg 73%
    04:00 +7°C° 0.3 mm 1 mps 733 mmHg 73%
    05:00 +7°C° 0.3 mm 1 mps 733 mmHg 72%
    06:00 +7°C° 0.3 mm 1 mps 733 mmHg 71%
    07:00 +7°C° 0.2 mm 1 mps 733 mmHg 67%
    08:00 +7°C° 0.2 mm 1 mps 734 mmHg 63%
    09:00 +7°C° 0.2 mm 1 mps 734 mmHg 60%
    10:00 +7°C° 0 mm 1 mps 734 mmHg 55%
    11:00 +8°C° 0 mm 1 mps 734 mmHg 50%
    12:00 +7°C° 0 mm 2 mps 734 mmHg 46%
    13:00 +7°C° 0 mm 2 mps 734 mmHg 44%
    14:00 +7°C° 0 mm 2 mps 734 mmHg 42%
    15:00 +7°C° 0 mm 2 mps 734 mmHg 39%
    16:00 +6°C° 0 mm 2 mps 734 mmHg 40%
    17:00 +5°C° 0 mm 2 mps 735 mmHg 40%
    18:00 +4°C° 0 mm 2 mps 735 mmHg 40%
    19:00 +4°C° 0 mm 2 mps 736 mmHg 39%
    20:00 +3°C° 0 mm 2 mps 736 mmHg 39%
    21:00 +3°C° 0 mm 2 mps 736 mmHg 38%
    22:00 +3°C° 0 mm 2 mps 737 mmHg 39%
    23:00 +1°C° 0 mm 3 mps 737 mmHg 39%

    24 November, Friday

    Time Temperature Precipitation Wind Pressure Humidity
    00:00 +1°C° 0 mm 3 mps 737 mmHg 39%
    01:00 +1°C° 0 mm 3 mps 737 mmHg 39%
    02:00 +1°C° 0 mm 3 mps 737 mmHg 39%
    03:00 0°C° 0 mm 3 mps 737 mmHg 39%
    04:00 0°C° 0 mm 3 mps 737 mmHg 40%
    05:00 0°C° 0 mm 3 mps 738 mmHg 40%
    06:00 +1°C° 0 mm 2 mps 738 mmHg 41%
    07:00 +1°C° 0 mm 3 mps 738 mmHg 39%
    08:00 +2°C° 0 mm 3 mps 738 mmHg 37%
    09:00 +3°C° 0 mm 3 mps 739 mmHg 35%
    10:00 +4°C° 0 mm 3 mps 738 mmHg 33%
    11:00 +5°C° 0 mm 3 mps 738 mmHg 32%
    12:00 +6°C° 0 mm 4 mps 738 mmHg 31%
    13:00 +7°C° 0 mm 3 mps 738 mmHg 31%
    14:00 +5°C° 0 mm 3 mps 738 mmHg 32%
    15:00 +5°C° 0 mm 3 mps 738 mmHg 32%
    16:00 +4°C° 0 mm 3 mps 738 mmHg 34%
    17:00 +3°C° 0 mm 3 mps 738 mmHg 35%
    18:00 +3°C° 0 mm 2 mps 739 mmHg 36%
    19:00 +3°C° 0 mm 2 mps 739 mmHg 36%
    20:00 +3°C° 0 mm 2 mps 739 mmHg 36%
    21:00 +3°C° 0 mm 2 mps 739 mmHg 36%
    22:00 +2°C° 0 mm 2 mps 739 mmHg 37%
    23:00 +2°C° 0 mm 2 mps 739 mmHg 38%

    25 November, Saturday

    Time Temperature Precipitation Wind Pressure Humidity
    00:00 +2°C° 0 mm 2 mps 740 mmHg 38%
    01:00 +2°C° 0 mm 2 mps 740 mmHg 39%
    02:00 +2°C° 0 mm 2 mps 740 mmHg 41%
    03:00 +1°C° 0 mm 3 mps 740 mmHg 42%
    04:00 +1°C° 0.1 mm 3 mps 740 mmHg 44%
    05:00 +1°C° 0.1 mm 3 mps 740 mmHg 46%
    06:00 +1°C° 0.1 mm 3 mps 741 mmHg 48%
    07:00 +2°C° 0.1 mm 3 mps 741 mmHg 48%
    08:00 +3°C° 0.1 mm 4 mps 742 mmHg 48%
    09:00 +4°C° 0.1 mm 4 mps 742 mmHg 48%
    10:00 +4°C° 0.1 mm 4 mps 742 mmHg 47%
    11:00 +5°C° 0.1 mm 5 mps 742 mmHg 45%
    12:00 +6°C° 0.1 mm 5 mps 742 mmHg 43%
    13:00 +6°C° 0.1 mm 4 mps 742 mmHg 43%
    14:00 +6°C° 0.1 mm 4 mps 742 mmHg 43%
    15:00 +6°C° 0.1 mm 4 mps 742 mmHg 43%
    16:00 +5°C° 0 mm 3 mps 743 mmHg 45%
    17:00 +4°C° 0 mm 3 mps 743 mmHg 48%
    18:00 +4°C° 0 mm 2 mps 744 mmHg 50%
    19:00 +4°C° 0 mm 2 mps 744 mmHg 50%
    20:00 +3°C° 0 mm 2 mps 744 mmHg 50%
    21:00 +4°C° 0 mm 1 mps 745 mmHg 50%
    22:00 +3°C° 0 mm 1 mps 745 mmHg 50%
    23:00 +3°C° 0 mm 1 mps 745 mmHg 49%
    Show more